Time,TemperatureF,DewpointF,PressureIn,WindDirection,WindDirectionDegrees,WindSpeedMPH,WindSpeedGustMPH,Humidity,HourlyPrecipIn,Conditions,Clouds,dailyrainin,SoftwareType,DateUTC
2013-03-25 00:00:00,35.0,25.0,-100.00,North,-999,-999.0,-999.0,64,-99.99,,,-99.99,,2013-03-25 00:00:00,
2013-03-25 00:42:00,35.0,25.0,-100.00,North,-999,-999.0,-999.0,64,-99.99,,,-99.99,,2013-03-25 00:42:00,
2013-03-25 01:00:00,35.0,24.0,-100.00,North,-999,-999.0,-999.0,65,-99.99,,,-99.99,,2013-03-25 01:00:00,
2013-03-25 01:41:00,35.0,24.0,-100.00,North,-999,-999.0,-999.0,65,-99.99,,,-99.99,,2013-03-25 01:41:00,
2013-03-25 01:52:00,35.0,24.0,-100.00,North,-999,-999.0,-999.0,65,-99.99,,,-99.99,,2013-03-25 01:52:00,
2013-03-25 02:00:00,35.0,24.0,-100.00,North,-999,-999.0,-999.0,65,-99.99,,,-99.99,,2013-03-25 02:00:00,
2013-03-25 02:42:00,35.0,24.0,-100.00,North,-999,-999.0,-999.0,65,-99.99,,,-99.99,,2013-03-25 02:42:00,
2013-03-25 02:51:00,35.0,24.0,-100.00,North,-999,-999.0,-999.0,65,-99.99,,,-99.99,,2013-03-25 02:51:00,
2013-03-25 03:00:00,36.0,26.0,-100.00,North,-999,-999.0,-999.0,67,-99.99,,,-99.99,,2013-03-25 03:00:00,
2013-03-25 03:42:00,36.0,26.0,-100.00,North,-999,-999.0,-999.0,67,-99.99,,,-99.99,,2013-03-25 03:42:00,
2013-03-25 03:52:00,36.0,26.0,-100.00,North,-999,-999.0,-999.0,67,-99.99,,,-99.99,,2013-03-25 03:52:00,
2013-03-25 04:00:00,36.0,25.0,-100.00,North,-999,-999.0,-999.0,64,-99.99,,,-99.99,,2013-03-25 04:00:00,
2013-03-25 04:42:00,36.0,25.0,-100.00,North,-999,-999.0,-999.0,64,-99.99,,,-99.99,,2013-03-25 04:42:00,
2013-03-25 04:52:00,36.0,25.0,-100.00,North,-999,-999.0,-999.0,64,-99.99,,,-99.99,,2013-03-25 04:52:00,
2013-03-25 05:00:00,37.0,26.0,-100.00,North,-999,-999.0,-999.0,62,-99.99,,,-99.99,,2013-03-25 05:00:00,
2013-03-25 05:41:00,37.0,26.0,-100.00,North,-999,-999.0,-999.0,62,-99.99,,,-99.99,,2013-03-25 05:41:00,
2013-03-25 05:51:00,37.0,26.0,-100.00,North,-999,-999.0,-999.0,62,-99.99,,,-99.99,,2013-03-25 05:51:00,
2013-03-25 06:00:00,37.0,26.0,-100.00,North,-999,-999.0,-999.0,64,-99.99,,,-99.99,,2013-03-25 06:00:00,
2013-03-25 06:41:00,37.0,26.0,-100.00,North,-999,-999.0,-999.0,64,-99.99,,,-99.99,,2013-03-25 06:41:00,
2013-03-25 06:51:00,37.0,26.0,-100.00,North,-999,-999.0,-999.0,64,-99.99,,,-99.99,,2013-03-25 06:51:00,
2013-03-25 07:00:00,37.0,26.0,-100.00,North,-999,-999.0,-999.0,63,-99.99,,,-99.99,,2013-03-25 07:00:00,
2013-03-25 07:42:00,37.0,26.0,-100.00,North,-999,-999.0,-999.0,63,-99.99,,,-99.99,,2013-03-25 07:42:00,
2013-03-25 07:52:00,37.0,26.0,-100.00,North,-999,-999.0,-999.0,63,-99.99,,,-99.99,,2013-03-25 07:52:00,
2013-03-25 08:00:00,37.0,26.0,-100.00,North,-999,-999.0,-999.0,62,-99.99,,,-99.99,,2013-03-25 08:00:00,
2013-03-25 08:42:00,37.0,26.0,-100.00,North,-999,-999.0,-999.0,62,-99.99,,,-99.99,,2013-03-25 08:42:00,
2013-03-25 08:52:00,37.0,26.0,-100.00,North,-999,-999.0,-999.0,62,-99.99,,,-99.99,,2013-03-25 08:52:00,
2013-03-25 09:00:00,37.0,26.0,-100.00,North,-999,-999.0,-999.0,64,-99.99,,,-99.99,,2013-03-25 09:00:00,
2013-03-25 09:42:00,37.0,26.0,-100.00,North,-999,-999.0,-999.0,64,-99.99,,,-99.99,,2013-03-25 09:42:00,
2013-03-25 09:52:00,37.0,26.0,-100.00,North,-999,-999.0,-999.0,64,-99.99,,,-99.99,,2013-03-25 09:52:00,
2013-03-25 10:00:00,38.0,26.0,-100.00,North,-999,-999.0,-999.0,62,-99.99,,,-99.99,,2013-03-25 10:00:00,
2013-03-25 10:42:00,38.0,26.0,-100.00,North,-999,-999.0,-999.0,62,-99.99,,,-99.99,,2013-03-25 10:42:00,
2013-03-25 10:52:00,38.0,26.0,-100.00,North,-999,-999.0,-999.0,62,-99.99,,,-99.99,,2013-03-25 10:52:00,
2013-03-25 11:00:00,38.0,24.0,-100.00,North,-999,-999.0,-999.0,56,-99.99,,,-99.99,,2013-03-25 11:00:00,
2013-03-25 11:41:00,38.0,24.0,-100.00,North,-999,-999.0,-999.0,56,-99.99,,,-99.99,,2013-03-25 11:41:00,
2013-03-25 11:51:00,38.0,24.0,-100.00,North,-999,-999.0,-999.0,56,-99.99,,,-99.99,,2013-03-25 11:51:00,
2013-03-25 12:00:00,37.0,23.0,-100.00,North,-999,-999.0,-999.0,56,-99.99,,,-99.99,,2013-03-25 12:00:00,
2013-03-25 12:41:00,37.0,23.0,-100.00,North,-999,-999.0,-999.0,56,-99.99,,,-99.99,,2013-03-25 12:41:00,
2013-03-25 12:52:00,37.0,23.0,-100.00,North,-999,-999.0,-999.0,56,-99.99,,,-99.99,,2013-03-25 12:52:00,
2013-03-25 13:00:00,38.0,25.0,-100.00,North,-999,-999.0,-999.0,59,-99.99,,,-99.99,,2013-03-25 13:00:00,
2013-03-25 13:41:00,38.0,25.0,-100.00,North,-999,-999.0,-999.0,59,-99.99,,,-99.99,,2013-03-25 13:41:00,
2013-03-25 13:52:00,38.0,25.0,-100.00,North,-999,-999.0,-999.0,59,-99.99,,,-99.99,,2013-03-25 13:52:00,
2013-03-25 14:00:00,38.0,23.0,-100.00,North,-999,-999.0,-999.0,54,-99.99,,,-99.99,,2013-03-25 14:00:00,
2013-03-25 14:31:00,38.0,23.0,-100.00,North,-999,-999.0,-999.0,54,-99.99,,,-99.99,,2013-03-25 14:31:00,
2013-03-25 14:41:00,38.0,23.0,-100.00,North,-999,-999.0,-999.0,54,-99.99,,,-99.99,,2013-03-25 14:41:00,
2013-03-25 14:52:00,38.0,23.0,-100.00,North,-999,-999.0,-999.0,54,-99.99,,,-99.99,,2013-03-25 14:52:00,
2013-03-25 15:00:00,39.0,26.0,-100.00,North,-999,-999.0,-999.0,57,-99.99,,,-99.99,,2013-03-25 15:00:00,
2013-03-25 15:42:00,39.0,26.0,-100.00,North,-999,-999.0,-999.0,57,-99.99,,,-99.99,,2013-03-25 15:42:00,
2013-03-25 15:52:00,39.0,26.0,-100.00,North,-999,-999.0,-999.0,57,-99.99,,,-99.99,,2013-03-25 15:52:00,
2013-03-25 16:00:00,39.0,26.0,-100.00,North,-999,-999.0,-999.0,59,-99.99,,,-99.99,,2013-03-25 16:00:00,
2013-03-25 16:42:00,39.0,26.0,-100.00,North,-999,-999.0,-999.0,59,-99.99,,,-99.99,,2013-03-25 16:42:00,
2013-03-25 16:52:00,39.0,26.0,-100.00,North,-999,-999.0,-999.0,59,-99.99,,,-99.99,,2013-03-25 16:52:00,
2013-03-25 17:00:00,39.0,27.0,-100.00,North,-999,-999.0,-999.0,62,-99.99,,,-99.99,,2013-03-25 17:00:00,
2013-03-25 17:51:00,39.0,27.0,-100.00,North,-999,-999.0,-999.0,62,-99.99,,,-99.99,,2013-03-25 17:51:00,
2013-03-25 18:00:00,38.0,26.0,-100.00,North,-999,-999.0,-999.0,59,-99.99,,,-99.99,,2013-03-25 18:00:00,
2013-03-25 18:41:00,38.0,26.0,-100.00,North,-999,-999.0,-999.0,59,-99.99,,,-99.99,,2013-03-25 18:41:00,
2013-03-25 18:51:00,38.0,26.0,-100.00,North,-999,-999.0,-999.0,59,-99.99,,,-99.99,,2013-03-25 18:51:00,
2013-03-25 19:00:00,38.0,28.0,-100.00,North,-999,-999.0,-999.0,64,-99.99,,,-99.99,,2013-03-25 19:00:00,
2013-03-25 19:41:00,38.0,28.0,-100.00,North,-999,-999.0,-999.0,64,-99.99,,,-99.99,,2013-03-25 19:41:00,
2013-03-25 19:52:00,38.0,28.0,-100.00,North,-999,-999.0,-999.0,64,-99.99,,,-99.99,,2013-03-25 19:52:00,
2013-03-25 20:00:00,38.0,25.0,-100.00,North,-999,-999.0,-999.0,57,-99.99,,,-99.99,,2013-03-25 20:00:00,
2013-03-25 20:41:00,38.0,25.0,-100.00,North,-999,-999.0,-999.0,57,-99.99,,,-99.99,,2013-03-25 20:41:00,
2013-03-25 20:51:00,38.0,25.0,-100.00,North,-999,-999.0,-999.0,57,-99.99,,,-99.99,,2013-03-25 20:51:00,
2013-03-25 21:00:00,38.0,26.0,-100.00,North,-999,-999.0,-999.0,61,-99.99,,,-99.99,,2013-03-25 21:00:00,
2013-03-25 21:32:00,38.0,26.0,-100.00,North,-999,-999.0,-999.0,61,-99.99,,,-99.99,,2013-03-25 21:32:00,
2013-03-25 21:42:00,38.0,26.0,-100.00,North,-999,-999.0,-999.0,61,-99.99,,,-99.99,,2013-03-25 21:42:00,
2013-03-25 21:52:00,38.0,26.0,-100.00,North,-999,-999.0,-999.0,61,-99.99,,,-99.99,,2013-03-25 21:52:00,
2013-03-25 22:00:00,38.0,26.0,-100.00,North,-999,-999.0,-999.0,62,-99.99,,,-99.99,,2013-03-25 22:00:00,
2013-03-25 22:42:00,38.0,26.0,-100.00,North,-999,-999.0,-999.0,62,-99.99,,,-99.99,,2013-03-25 22:42:00,
2013-03-25 22:52:00,38.0,26.0,-100.00,North,-999,-999.0,-999.0,62,-99.99,,,-99.99,,2013-03-25 22:52:00,
2013-03-25 23:00:00,37.0,25.0,-100.00,North,-999,-999.0,-999.0,60,-99.99,,,-99.99,,2013-03-25 23:00:00,
2013-03-25 23:42:00,37.0,25.0,-100.00,North,-999,-999.0,-999.0,60,-99.99,,,-99.99,,2013-03-25 23:42:00,
2013-03-25 23:52:00,37.0,25.0,-100.00,North,-999,-999.0,-999.0,60,-99.99,,,-99.99,,2013-03-25 23:52:00,